Location: Csohesd
(46.2500°N, 22.6167°E)
Time: 02:42:40
(UTC+00:00)

X-37B - Pass Details

Date: 13 December 2022
Orbit: 277 x 277 km, 45.0° (Epoch: 01 November)

Event Time Altitude Azimuth Distance (km) Brightness Sun altitude
Rises 16:01:24 0° 263° (W) 1,914 5.8 -12.8°
Reaches altitude 10° 16:03:20 10° 261° (W) 1,102 4.3 -13.2°
Maximum altitude 16:05:46 65° 178° (S) 308 0.1 -13.6°
Enters shadow 16:06:37 34° 107° (ESE) 481 0.6 -13.7°
